Paris, TX

8:01 PM CDT on March 27, 2017 (GMT -0500)
Cox

Weather History for KPRX - November, 2011

Change the Weather History Date:

Monday, November 14, 2011

  Actual Average Record
Temperature  
Mean Temperature 74 °F -  
Max Temperature 80 °F 62 °F 82 °F (1999)
Min Temperature 69 °F 44 °F 23 °F (2014)
Cooling Degree Days 10    
Growing Degree Days 24 (Base 50)    
Moisture  
Dew Point 64 °F    
Average Humidity 71    
Maximum Humidity 88    
Minimum Humidity 54    
Precipitation  
Precipitation 0.00 in - - ()
Sea Level Pressure  
Sea Level Pressure 29.81 in    
Wind  
Wind Speed 15 mph (SSW)    
Max Wind Speed 23 mph    
Max Gust Speed 28 mph    
Visibility 10 miles    
Events      
Averages and records for this station are not official NWS values.
T = Trace of Precipitation, MM = Missing Value Source: NWS Daily Summary

Daily Weather History Graph

Daily Weather History Graph

Search for Another Location

Airport or City:

Trip Planner

Search our weather history database for the weather conditions in past years. The results will help you decide how hot, cold, wet, or windy it might be!

Date:

Astronomy

Nov. 14, 2011 Rise Set
Actual Time 6:52 AM CST 5:19 PM CST
Civil Twilight 6:26 AM CST 5:45 PM CST
Nautical Twilight 5:56 AM CST 6:15 PM CST
Astronomical Twilight 5:26 AM CST 6:45 PM CST
Moon 8:30 PM CST (11/14) 10:07 AM CST (11/14)
Length of Visible Light 11h 19m
Length of Day
10h 27m
Waning Gibbous, 86% of the Moon is Illuminated
Nov 14
Waning Gibbous
Nov 18
Last Quarter
Nov 25
New
Dec 2
First Quarter
Dec 10
Full

Hourly Weather History & Observations

Time (CST) Temp. Heat Index Dew Point Humidity Pressure Visibility Wind Dir Wind Speed Gust Speed Precip Events Conditions
12:15 AM 71.6 °F - 62.6 °F 73% 29.81 in 10.0 mi South 16.1 mph 20.7 mph N/A   Clear
12:35 AM 71.6 °F - 62.6 °F 73% 29.81 in 10.0 mi South 15.0 mph - N/A   Clear
12:55 AM 69.8 °F - 62.6 °F 78% 29.81 in 10.0 mi South 13.8 mph - N/A   Clear
1:15 AM 69.8 °F - 62.6 °F 78% 29.81 in 10.0 mi SSW 15.0 mph 20.7 mph N/A   Clear
1:35 AM 69.8 °F - 62.6 °F 78% 29.81 in 10.0 mi South 12.7 mph 20.7 mph N/A   Clear
1:55 AM 69.8 °F - 64.4 °F 83% 29.81 in 10.0 mi SSW 12.7 mph 20.7 mph N/A   Clear
2:15 AM 69.8 °F - 64.4 °F 83% 29.81 in 10.0 mi SSW 15.0 mph 20.7 mph N/A   Clear
2:35 AM 69.8 °F - 64.4 °F 83% 29.81 in 10.0 mi SSW 16.1 mph - N/A   Clear
2:55 AM 69.8 °F - 64.4 °F 83% 29.81 in 10.0 mi SSW 15.0 mph - N/A   Clear
3:35 AM 69.8 °F - 64.4 °F 83% 29.81 in 10.0 mi SSW 16.1 mph - N/A   Mostly Cloudy
3:55 AM 69.8 °F - 66.2 °F 88% 29.81 in 10.0 mi SSW 13.8 mph - N/A   Overcast
4:15 AM 71.6 °F - 66.2 °F 83% 29.81 in 10.0 mi SSW 16.1 mph 21.9 mph N/A   Overcast
4:35 AM 71.6 °F - 66.2 °F 83% 29.81 in 10.0 mi SSW 20.7 mph 27.6 mph N/A   Overcast
4:55 AM 71.6 °F - 66.2 °F 83% 29.81 in 10.0 mi SSW 20.7 mph 27.6 mph N/A   Overcast
5:15 AM 71.6 °F - 66.2 °F 83% 29.81 in 10.0 mi SSW 20.7 mph 26.5 mph N/A   Overcast
5:35 AM 71.6 °F - 66.2 °F 83% 29.81 in 10.0 mi SSW 17.3 mph 26.5 mph N/A   Overcast
6:15 AM 71.6 °F - 66.2 °F 83% 29.82 in 10.0 mi SSW 18.4 mph 25.3 mph N/A   Mostly Cloudy
6:35 AM 71.6 °F - 64.4 °F 78% 29.82 in 10.0 mi SSW 18.4 mph 26.5 mph N/A   Mostly Cloudy
6:55 AM 71.6 °F - 64.4 °F 78% 29.83 in 10.0 mi SW 17.3 mph 21.9 mph N/A   Mostly Cloudy
7:35 AM 71.6 °F - 64.4 °F 78% 29.84 in 10.0 mi SW 16.1 mph 21.9 mph N/A   Scattered Clouds
7:55 AM 71.6 °F - 64.4 °F 78% 29.85 in 10.0 mi SSW 16.1 mph 20.7 mph N/A   Mostly Cloudy
8:15 AM 71.6 °F - 64.4 °F 78% 29.85 in 10.0 mi SW 13.8 mph 21.9 mph N/A   Scattered Clouds
8:35 AM 71.6 °F - 64.4 °F 78% 29.86 in 10.0 mi SSW 16.1 mph 21.9 mph N/A   Mostly Cloudy
8:55 AM 73.4 °F - 64.4 °F 73% 29.87 in 10.0 mi SSW 23.0 mph 26.5 mph N/A   Overcast
9:15 AM 73.4 °F - 64.4 °F 73% 29.87 in 10.0 mi SW 19.6 mph 25.3 mph N/A   Mostly Cloudy
9:35 AM 75.2 °F - 64.4 °F 69% 29.88 in 10.0 mi SW 17.3 mph 26.5 mph N/A   Mostly Cloudy
9:55 AM 75.2 °F - 64.4 °F 69% 29.88 in 10.0 mi SW 20.7 mph 25.3 mph N/A   Mostly Cloudy
10:35 AM 77.0 °F - 64.4 °F 65% 29.87 in 10.0 mi SW 21.9 mph 26.5 mph N/A   Mostly Cloudy
10:55 AM 78.8 °F - 64.4 °F 61% 29.87 in 10.0 mi SW 17.3 mph 24.2 mph N/A   Mostly Cloudy
11:15 AM 78.8 °F - 64.4 °F 61% 29.86 in 10.0 mi WSW 16.1 mph 20.7 mph N/A   Overcast
11:35 AM 78.8 °F - 64.4 °F 61% 29.85 in 10.0 mi WSW 16.1 mph - N/A   Overcast
11:55 AM 78.8 °F - 64.4 °F 61% 29.84 in 10.0 mi WSW 16.1 mph 21.9 mph N/A   Overcast
12:15 PM 78.8 °F - 64.4 °F 61% 29.83 in 10.0 mi West 11.5 mph - N/A   Overcast
12:35 PM 78.8 °F - 64.4 °F 61% 29.82 in 10.0 mi West 17.3 mph 20.7 mph N/A   Mostly Cloudy
12:55 PM 78.8 °F - 64.4 °F 61% 29.81 in 10.0 mi WSW 13.8 mph 19.6 mph N/A   Scattered Clouds
1:15 PM 78.8 °F - 64.4 °F 61% 29.80 in 10.0 mi West 13.8 mph - N/A   Mostly Cloudy
1:35 PM 78.8 °F - 64.4 °F 61% 29.79 in 10.0 mi WSW 13.8 mph - N/A   Mostly Cloudy
1:55 PM 80.6 °F 82.3 °F 64.4 °F 58% 29.79 in 10.0 mi WSW 13.8 mph - N/A   Mostly Cloudy
2:15 PM 78.8 °F - 64.4 °F 61% 29.78 in 10.0 mi WSW 13.8 mph - N/A   Mostly Cloudy
2:35 PM 80.6 °F 82.3 °F 64.4 °F 58% 29.77 in 10.0 mi SW 13.8 mph - N/A   Mostly Cloudy
2:55 PM 80.6 °F 82.3 °F 64.4 °F 58% 29.77 in 10.0 mi SW 12.7 mph - N/A   Mostly Cloudy
3:15 PM 80.6 °F 82.3 °F 64.4 °F 58% 29.77 in 10.0 mi SSW 15.0 mph 19.6 mph N/A   Mostly Cloudy
3:35 PM 80.6 °F 81.8 °F 62.6 °F 54% 29.77 in 10.0 mi SSW 13.8 mph - N/A   Partly Cloudy
4:15 PM 78.8 °F - 62.6 °F 57% 29.76 in 10.0 mi SSW 10.4 mph - N/A   Scattered Clouds
4:35 PM 78.8 °F - 62.6 °F 57% 29.76 in 10.0 mi SSW 11.5 mph - N/A   Partly Cloudy
4:55 PM 78.8 °F - 62.6 °F 57% 29.76 in 10.0 mi SSW 9.2 mph 17.3 mph N/A   Clear
5:15 PM 75.2 °F - 62.6 °F 65% 29.76 in 10.0 mi SSW 6.9 mph - N/A   Clear
5:35 PM 75.2 °F - 62.6 °F 65% 29.77 in 10.0 mi SSW 5.8 mph - N/A   Mostly Cloudy
5:55 PM 73.4 °F - 62.6 °F 69% 29.77 in 10.0 mi South 5.8 mph - N/A   Overcast
6:15 PM 73.4 °F - 62.6 °F 69% 29.77 in 10.0 mi South 5.8 mph - N/A   Mostly Cloudy
6:35 PM 73.4 °F - 62.6 °F 69% 29.78 in 10.0 mi South 6.9 mph - N/A   Scattered Clouds
6:55 PM 71.6 °F - 62.6 °F 73% 29.78 in 10.0 mi South 8.1 mph - N/A   Partly Cloudy
7:15 PM 71.6 °F - 60.8 °F 69% 29.78 in 10.0 mi SSE 4.6 mph - N/A   Clear
7:35 PM 71.6 °F - 60.8 °F 69% 29.78 in 10.0 mi SSE 6.9 mph - N/A   Scattered Clouds
7:55 PM 71.6 °F - 62.6 °F 73% 29.78 in 10.0 mi SSE 6.9 mph - N/A   Scattered Clouds
8:15 PM 69.8 °F - 62.6 °F 78% 29.78 in 10.0 mi Calm Calm - N/A   Partly Cloudy
8:35 PM 69.8 °F - 62.6 °F 78% 29.78 in 10.0 mi Calm Calm - N/A   Scattered Clouds
9:15 PM 69.8 °F - 62.6 °F 78% 29.78 in 10.0 mi Calm Calm - N/A   Scattered Clouds
9:35 PM 69.8 °F - 62.6 °F 78% 29.78 in 10.0 mi SSE 4.6 mph - N/A   Scattered Clouds
9:55 PM 69.8 °F - 62.6 °F 78% 29.78 in 10.0 mi South 5.8 mph - N/A   Scattered Clouds
10:15 PM 71.6 °F - 62.6 °F 73% 29.78 in 10.0 mi South 9.2 mph - N/A   Scattered Clouds
10:35 PM 71.6 °F - 62.6 °F 73% 29.78 in 10.0 mi South 9.2 mph - N/A   Mostly Cloudy
10:55 PM 71.6 °F - 64.4 °F 78% 29.77 in 10.0 mi South 12.7 mph - N/A   Partly Cloudy
11:15 PM 71.6 °F - 64.4 °F 78% 29.78 in 10.0 mi South 12.7 mph - N/A   Scattered Clouds
11:35 PM 71.6 °F - 64.4 °F 78% 29.78 in 10.0 mi South 8.1 mph - N/A   Scattered Clouds
11:55 PM 71.6 °F - 64.4 °F 78% 29.77 in 10.0 mi South 9.2 mph - N/A   Scattered Clouds